Temperature
18 18 18 18 18 17 17 17 17 17 17 17 17 17 17 17 17 17 17 17 17 17 17 17 17 17 16 16 16 16 16 16 16 16 16 16 16 16 15 15 15 15 15
18 18 18 18 18 17 17 17 17 17 17 17 17 17 17 17 17 17 17 17 17 17 17 17 17 17 16 16 16 16 16 16 16 16 16 16 16 16 15 15 15 15 15
18 18 18 18 18 17 17 17 17 17 17 17 17 17 17 17 17 17 17 17 17 17 17 17 17 17 16 16 16 16 16 16 16 16 16 16 16 15 15 15 15 15 15
18 18 18 18 18 17 17 17 17 17 17 17 17 17 17 17 17 17 17 17 17 17 17 16 16 16 16 16 16 16 16 16 16 16 16 16 16 15 15 15 15 15 15
18 18 18 17 17 17 17 17 17 17 17 17 17 17 17 17 17 17 17 17 17 17 16 16 16 16 16 16 16 16 16 16 16 16 16 16 15 15 15 15 15 15 15
18 18 17 17 17 17 17 17 17 17 17 17 17 17 17 17 17 17 17 17 17 17 16 16 16 16 16 16 16 16 16 16 16 16 16 16 15 15 15 15 15 15 15
18 18 17 17 17 17 17 17 17 17 17 17 17 17 17 17 17 17 17 17 17 17 17 16 16 16 16 16 16 16 16 16 16 16 15 15 15 15 15 15 15 15 15
18 17 17 17 17 17 17 17 17 17 17 17 17 17 17 17 17 17 17 17 17 17 17 16 16 16 16 16 16 16 16 16 16 16 15 15 15 15 15 15 15 15 15
18 18 17 17 17 17 17 17 17 17 17 17 17 17 17 17 17 17 17 17 17 17 17 16 16 16 16 16 16 16 16 16 16 16 15 15 15 15 15 15 15 15 14
18 18 17 17 17 17 17 17 17 17 17 17 17 17 17 17 17 17 17 17 17 17 17 17 16 16 16 16 16 16 16 16 16 15 15 15 15 15 15 15 15 14 14
17 17 17 17 17 17 17 17 17 17 17 17 17 17 17 17 17 17 17 17 17 17 17 17 17 16 16 16 16 16 16 16 15 15 15 15 15 15 15 15 14 14 14
17 17 17 17 17 17 17 17 17 17 17 17 17 17 17 17 17 17 17 17 17 17 17 17 17 17 16 16 16 16 16 16 15 15 15 15 15 15 15 14 14 14 14
17 17 17 17 17 17 17 17 17 17 17 17 17 17 17 17 17 17 17 17 17 17 17 17 17 17 16 16 16 16 16 15 15 15 15 15 15 15 14 14 14 14 14
17 17 17 17 17 17 17 17 17 17 17 17 17 17 17 17 17 17 17 17 16 16 16 16 16 16 16 16 16 16 16 15 15 15 15 15 14 14 14 14 14 14 14
17 17 17 17 17 17 17 17 17 16 16 16 16 16 16 16 16 16 16 16 16 16 16 16 16 16 16 15 15 15 15 15 15 14 14 14 14 14 13 13 13 13 13
17 17 17 17 17 16 16 16 16 16 16 16 16 16 16 16 16 16 16 16 16 16 16 15 15 15 15 15 15 15 14 14 14 14 14 13 13 13 13 13 12 12 12
17 17 17 16 16 16 16 16 16 16 16 16 16 16 16 16 16 16 16 16 16 16 16 15 15 15 14 14 14 14 14 13 13 13 13 13 12 12 12 12 12 11 11
17 17 16 16 16 16 16 16 16 16 16 16 16 15 15 15 15 15 15 15 15 15 15 15 14 14 14 13 13 13 13 12 12 12 12 12 11 11 11 11 10 10 10
16 16 16 16 16 16 16 16 16 16 16 16 15 15 15 15 15 15 15 15 15 15 15 15 14 13 13 13 12 12 12 11 11 11 11 10 10 10 10 10 9 9 9
16 16 16 16 16 16 15 15 15 15 15 15 15 15 15 14 14 14 14 14 14 14 14 14 13 13 12 12 11 11 11 10 10 10 9 9 9 9 9 9 9 8 8
16 16 15 15 15 15 15 15 15 15 15 15 14 14 14 14 14 14 14 14 14 14 13 13 12 12 11 11 11 10 10 10 9 9 9 8 8 8 8 8 8 7 7
15 15 15 15 15 15 15 14 14 14 14 14 14 14 14 13 13 13 13 13 13 13 13 12 12 11 11 10 10 10 9 9 8 8 8 8 7 7 7 7 6 6 6
15 15 15 15 15 14 14 14 14 14 14 13 13 13 13 13 13 13 12 12 12 12 12 11 11 11 10 10 10 9 9 9 8 7 7 7 6 6 6 6 6 5 5
15 14 14 14 14 14 14 14 13 13 13 13 13 12 12 12 12 12 12 12 11 11 10 10 10 10 9 9 9 9 8 8 7 7 6 6 6 6 5 5 5 5 5
14 14 14 14 14 13 13 13 13 13 13 13 12 12 11 11 11 11 11 11 11 10 9 9 9 9 8 8 8 8 7 7 7 6 6 6 5 5 5 5 4 4 4
14 14 13 13 13 13 13 12 12 13 12 12 11 11 11 11 10 10 10 10 10 9 9 8 8 8 7 7 7 7 7 6 6 5 5 5 5 5 4 4 4 4 4
Wind_Speed
3 3 3 3 3 4 3 3 3 3 3 4 4 5 5 6 6 6 6 8 9 9 9 9 9 9 10 10 9 9 9 9 8 8 8 8 7 7 7 7 7 7 6
5 4 3 3 3 3 3 3 2 3 2 2 2 4 4 5 6 6 6 6 8 9 9 9 9 9 10 10 10 9 9 9 9 8 8 8 8 8 7 7 7 6 6
8 6 4 3 4 3 3 3 2 3 2 2 1 2 3 5 6 6 6 6 6 8 9 9 10 10 10 10 10 10 9 9 9 9 9 8 8 8 8 8 7 7 7
10 8 4 4 5 4 3 2 2 2 1 1 1 1 2 3 5 6 6 6 6 6 8 9 10 10 10 10 11 11 10 10 10 10 10 9 9 9 9 9 8 8 8
11 9 6 5 5 4 3 2 2 2 2 2 1 1 1 2 3 5 5 6 7 7 7 8 9 10 10 10 11 11 11 11 11 11 11 10 10 10 10 10 9 9 9
11 9 6 6 6 3 3 2 2 1 1 2 1 0 0 1 2 4 5 6 7 7 8 7 8 9 10 11 11 11 11 11 11 11 11 11 11 11 11 11 11 10 10
11 9 6 5 5 5 5 5 3 2 1 1 2 1 1 1 2 3 4 4 6 7 8 8 8 8 8 9 10 10 10 11 11 11 11 11 11 11 12 12 12 11 11
11 10 7 5 5 4 5 5 4 3 2 2 2 1 1 2 2 2 3 4 5 6 7 8 8 9 8 7 8 10 10 11 11 11 11 12 12 11 12 12 12 12 11
11 10 9 7 6 6 6 6 6 5 4 2 2 3 3 3 2 2 1 3 3 4 5 6 7 8 8 8 8 9 10 10 11 11 11 12 12 12 12 12 12 11 11
9 10 9 8 7 6 6 6 6 4 5 3 2 1 2 3 2 1 1 1 1 2 3 3 5 6 7 7 8 9 9 9 9 10 10 10 10 10 10 10 10 9 8
6 8 8 7 6 6 6 6 6 5 4 4 4 3 2 1 1 2 1 1 1 1 1 2 3 3 4 5 6 7 8 7 7 7 7 7 7 6 6 6 6 5 5
4 5 7 6 6 6 6 6 6 7 5 5 4 4 4 3 3 3 3 2 1 1 1 0 1 1 2 2 3 3 3 3 3 2 2 2 2 2 3 2 1 1 2
4 5 5 5 5 6 6 6 6 6 6 6 5 4 4 4 3 3 3 2 1 0 1 1 2 1 0 1 2 3 3 3 4 5 6 6 6 7 6 7 7 7 6
5 5 5 5 6 6 6 5 5 5 5 6 6 5 4 4 4 4 4 4 2 0 1 1 2 4 3 4 5 6 7 8 8 8 9 10 10 10 10 10 10 9 9
4 5 5 5 5 5 5 5 4 5 5 5 5 5 4 3 4 4 4 4 4 3 1 1 1 3 5 6 8 9 10 12 13 13 13 13 13 13 13 13 12 12 12
4 4 4 4 4 4 4 5 4 4 5 5 4 4 4 3 3 3 4 3 3 4 2 1 2 3 6 8 10 12 13 15 15 15 15 15 15 15 14 14 13 13 13
4 4 4 4 4 4 4 4 4 4 5 4 3 4 4 3 3 2 3 3 3 3 4 2 2 4 5 7 9 12 13 14 15 16 16 16 16 16 15 14 14 13 13
3 4 4 4 4 4 4 4 4 4 4 4 4 4 3 3 3 3 3 3 3 3 5 5 3 3 5 6 7 9 11 13 14 17 17 17 16 15 15 14 14 13 13
3 3 3 4 4 4 4 4 4 4 3 3 3 4 4 4 3 3 4 4 4 5 5 7 5 3 4 4 6 8 10 10 12 13 15 16 16 15 14 14 13 12 11
3 3 3 3 3 4 4 4 5 5 4 4 3 3 3 4 4 4 4 5 6 7 7 8 6 4 4 3 5 6 6 6 7 10 12 13 14 14 13 13 12 11 11
3 3 3 3 3 3 4 5 6 6 5 5 5 4 5 6 7 6 5 6 7 7 8 8 7 5 4 4 4 3 6 6 6 6 6 8 9 9 10 10 10 10 9
4 4 4 4 4 3 6 8 7 6 6 6 6 6 7 8 10 12 12 11 10 9 9 7 6 6 5 3 3 5 4 4 3 4 3 5 6 5 7 8 10 10 10
5 5 5 5 5 6 9 10 11 7 7 6 6 6 6 8 10 11 14 16 15 14 11 8 9 6 5 4 5 6 5 5 3 1 2 4 4 4 5 7 10 11 11
5 5 5 6 7 7 10 11 12 9 8 7 6 7 8 7 8 11 12 12 11 10 10 9 8 7 6 5 5 6 6 6 5 4 3 3 3 2 3 6 9 10 11
6 5 5 6 7 7 9 11 11 8 8 8 7 8 9 9 12 14 13 13 12 10 16 18 17 15 14 13 11 7 6 6 4 4 3 2 2 2 2 3 7 10 10
7 7 7 6 7 6 8 9 10 8 9 8 7 8 10 10 11 12 11 12 12 9 9 11 12 13 13 12 11 7 5 5 3 2 2 2 2 2 2 2 4 7 8
Wind_Direction
163 155 147 141 138 134 127 116 107 112 120 123 138 151 158 164 170 170 176 180 178 175 176 175 173 172 171 170 169 168 167 166 165 166 167 166 166 165 165 161 164 167 164
177 170 169 171 170 160 145 135 124 119 125 131 141 155 166 174 177 178 186 192 191 188 188 189 186 185 183 183 183 183 182 181 180 181 182 182 182 179 177 176 175 176 178
186 183 183 195 200 185 158 133 119 111 126 130 137 157 169 181 184 188 193 198 201 202 200 200 197 197 197 196 196 194 193 191 193 195 195 196 197 195 192 192 192 192 194
192 186 189 204 202 182 159 146 139 129 135 142 158 177 169 180 193 200 200 203 204 208 210 210 209 210 211 209 207 204 203 201 204 206 206 207 209 208 207 206 206 206 206
195 189 193 201 191 174 166 173 160 160 169 170 183 192 188 197 207 211 209 210 210 213 218 223 222 218 220 222 219 214 213 212 212 213 214 215 215 215 216 217 217 218 219
195 190 193 192 181 171 178 172 160 151 154 163 171 134 294 243 225 228 226 219 219 222 225 228 229 230 231 233 230 224 221 222 221 222 223 224 222 221 223 223 225 226 227
194 189 192 182 180 186 191 178 159 159 162 140 107 22 344 297 240 234 229 223 224 226 227 228 228 230 235 241 242 237 231 228 227 227 228 230 230 228 228 228 229 231 232
193 194 187 185 184 184 185 183 170 160 169 160 149 125 344 333 309 249 226 223 228 225 228 230 227 227 228 236 242 241 238 238 237 233 230 232 232 232 233 232 233 234 235
194 193 190 187 185 187 194 194 183 174 181 184 171 155 163 228 294 316 259 237 227 222 229 229 227 230 231 235 242 246 247 246 244 239 234 235 235 234 235 235 235 238 239
198 193 189 188 187 189 193 198 191 185 170 184 187 193 177 161 168 295 324 300 239 230 232 226 226 226 229 231 238 243 246 248 249 247 240 237 237 238 237 235 235 238 237
200 193 189 190 191 193 197 198 189 189 184 183 181 175 170 153 159 174 253 313 2 305 250 234 236 233 230 230 238 242 240 242 246 249 247 241 237 231 226 225 227 232 229
199 195 192 193 197 197 198 201 198 192 193 189 187 185 178 175 187 181 202 225 239 331 15 24 244 242 232 213 217 208 217 225 228 224 206 169 156 155 162 172 190 171 164
201 204 198 197 201 199 198 194 193 197 195 194 196 203 203 204 171 169 174 188 199 259 27 42 19 4 67 129 131 125 106 110 108 104 102 102 100 98 100 95 86 84 79
204 196 194 199 201 196 198 191 195 203 199 201 206 202 204 209 190 180 172 163 165 181 55 36 38 36 54 80 90 98 90 91 95 99 100 98 96 92 90 89 85 81 77
202 192 192 195 198 194 194 189 194 200 194 201 207 205 207 212 201 199 182 173 167 183 204 46 52 33 57 79 85 91 89 90 91 94 94 93 91 89 88 86 82 78 78
195 185 187 189 193 197 197 194 191 194 191 203 201 197 208 214 203 197 192 188 178 170 165 81 60 47 62 80 80 86 88 88 89 92 93 92 92 90 89 87 84 82 77
183 183 186 184 186 193 190 188 195 186 187 194 195 194 210 199 188 192 181 165 158 145 148 118 68 57 63 75 76 82 85 84 83 86 90 90 90 89 87 86 83 80 79
174 178 176 173 180 180 179 180 187 180 175 183 189 181 198 190 176 170 159 155 151 144 143 137 111 75 69 80 83 82 82 84 85 82 84 87 88 88 87 86 83 81 77
156 159 161 171 176 171 164 163 157 151 152 161 167 171 179 165 164 151 145 142 133 128 124 130 123 89 77 81 85 80 76 77 83 81 80 80 82 84 82 80 79 76 72
143 149 160 166 165 155 149 144 134 129 124 117 115 123 138 156 158 144 135 128 124 118 115 117 114 101 88 78 89 92 83 70 71 72 72 73 73 74 72 72 71 68 63
121 129 131 124 123 130 137 136 132 128 122 110 96 91 95 107 117 123 126 126 127 122 118 116 112 105 100 100 105 103 104 93 66 55 65 59 61 62 59 57 59 58 55
90 95 105 111 108 114 124 126 127 121 116 113 107 92 85 85 92 95 101 106 116 125 129 123 117 118 120 114 111 117 120 110 82 30 57 52 50 49 47 51 49 50 47
88 85 87 95 96 101 112 115 114 113 111 111 111 106 100 93 93 95 89 85 85 92 108 122 121 123 128 138 128 116 105 93 92 66 70 57 37 49 42 41 39 39 37
95 93 89 93 93 91 102 105 103 99 98 94 96 104 107 102 105 108 100 89 81 77 89 96 108 109 111 114 116 120 116 100 79 48 50 66 29 26 24 23 26 28 28
101 96 95 97 97 92 95 101 102 100 96 89 90 97 107 108 112 111 108 103 95 86 86 91 92 92 93 99 109 110 107 104 82 48 28 65 34 4 1 1 11 18 20
105 100 90 87 93 94 92 99 105 107 104 99 91 92 102 110 112 114 115 115 110 104 100 91 84 80 81 82 87 99 118 114 100 73 28 57 40 20 15 345 346 1 7
Height
1567 1568 1570 1571 1573 1574 1576 1577 1578 1579 1580 1581 1582 1583 1583 1584 1584 1585 1586 1586 1587 1588 1589 1590 1591 1592 1593 1594 1595 1596 1597 1598 1599 1600 1600 1601 1602 1603 1603 1604 1604 1605 1605
1568 1569 1571 1572 1574 1575 1577 1578 1579 1580 1581 1582 1582 1583 1584 1584 1585 1585 1586 1587 1588 1588 1589 1590 1591 1592 1593 1594 1595 1596 1597 1598 1598 1599 1600 1601 1602 1602 1603 1603 1604 1604 1605
1568 1570 1571 1573 1575 1576 1577 1578 1579 1580 1581 1582 1583 1583 1584 1585 1585 1586 1586 1587 1588 1588 1589 1590 1591 1592 1593 1594 1595 1595 1596 1597 1598 1599 1600 1601 1601 1602 1602 1603 1603 1604 1604
1568 1570 1572 1573 1575 1576 1577 1578 1579 1580 1581 1582 1583 1583 1584 1585 1585 1586 1586 1587 1587 1588 1589 1590 1591 1591 1592 1593 1594 1595 1596 1597 1597 1598 1599 1600 1600 1601 1602 1602 1603 1603 1604
1568 1569 1571 1573 1574 1576 1577 1578 1579 1580 1581 1582 1583 1583 1584 1584 1585 1585 1586 1586 1587 1588 1588 1589 1590 1591 1591 1592 1593 1594 1595 1596 1596 1597 1598 1598 1599 1600 1600 1601 1601 1602 1602
1567 1569 1570 1572 1574 1575 1576 1577 1579 1580 1581 1582 1582 1583 1583 1583 1584 1584 1585 1586 1586 1587 1588 1588 1589 1589 1590 1591 1592 1592 1593 1594 1595 1596 1596 1597 1598 1598 1599 1599 1600 1600 1601
1565 1567 1569 1571 1572 1574 1575 1576 1578 1579 1580 1581 1582 1582 1582 1582 1583 1583 1584 1585 1585 1586 1586 1587 1588 1588 1589 1589 1590 1591 1592 1592 1593 1594 1595 1595 1596 1597 1597 1597 1598 1598 1599
1564 1566 1567 1569 1571 1572 1574 1575 1576 1577 1579 1580 1580 1581 1581 1582 1581 1582 1582 1583 1584 1585 1585 1586 1587 1587 1587 1588 1589 1589 1590 1591 1591 1592 1593 1593 1594 1594 1595 1595 1596 1596 1596
1561 1563 1565 1567 1569 1570 1571 1573 1574 1576 1577 1578 1579 1580 1580 1579 1580 1580 1580 1581 1582 1583 1584 1584 1585 1585 1586 1587 1587 1588 1589 1589 1590 1590 1591 1591 1592 1592 1592 1593 1593 1593 1594
1558 1561 1563 1565 1566 1567 1569 1571 1572 1573 1575 1576 1577 1577 1579 1578 1579 1579 1579 1579 1580 1581 1582 1582 1583 1584 1584 1585 1585 1586 1587 1587 1588 1588 1588 1589 1589 1590 1590 1590 1590 1591 1591
1556 1558 1560 1562 1563 1565 1566 1568 1569 1571 1572 1573 1574 1575 1576 1576 1577 1577 1577 1578 1578 1579 1579 1580 1581 1582 1582 1583 1583 1584 1584 1585 1585 1585 1586 1586 1586 1587 1587 1587 1588 1588 1588
1552 1554 1556 1558 1560 1561 1563 1565 1566 1568 1569 1570 1571 1572 1573 1574 1574 1575 1575 1576 1576 1577 1577 1578 1579 1579 1580 1581 1581 1581 1582 1582 1583 1583 1583 1583 1584 1584 1585 1585 1585 1585 1585
1549 1551 1552 1554 1556 1558 1560 1561 1563 1564 1566 1567 1568 1569 1570 1571 1572 1573 1573 1574 1574 1575 1575 1576 1576 1577 1578 1578 1579 1579 1579 1580 1580 1580 1581 1581 1581 1582 1582 1582 1582 1582 1582
1545 1547 1549 1551 1553 1554 1556 1558 1559 1561 1562 1563 1565 1566 1567 1568 1569 1570 1571 1571 1572 1573 1573 1574 1574 1575 1575 1576 1576 1577 1577 1577 1577 1578 1578 1578 1579 1579 1579 1579 1579 1579 1579
1542 1544 1546 1547 1549 1551 1553 1554 1556 1557 1558 1560 1561 1562 1563 1564 1565 1566 1567 1568 1570 1570 1571 1571 1572 1572 1573 1573 1574 1574 1574 1575 1575 1575 1576 1576 1576 1576 1576 1576 1576 1576 1576
1539 1541 1542 1544 1546 1547 1549 1551 1552 1554 1555 1556 1557 1558 1559 1560 1561 1563 1564 1565 1566 1567 1567 1568 1569 1570 1570 1571 1571 1572 1572 1572 1573 1573 1573 1574 1573 1573 1574 1574 1573 1573 1573
1536 1538 1539 1541 1543 1544 1546 1547 1549 1550 1552 1553 1554 1554 1555 1556 1557 1559 1560 1561 1562 1564 1564 1566 1567 1567 1568 1568 1569 1569 1570 1570 1570 1571 1571 1571 1571 1571 1571 1571 1571 1571 1570
1533 1535 1537 1538 1539 1541 1542 1544 1545 1547 1548 1549 1550 1551 1552 1553 1554 1555 1556 1557 1558 1560 1561 1562 1563 1564 1565 1566 1566 1567 1567 1568 1568 1569 1569 1569 1569 1569 1569 1569 1568 1568 1568
1531 1532 1534 1535 1536 1538 1539 1541 1542 1544 1545 1546 1547 1547 1548 1549 1551 1552 1553 1554 1555 1557 1558 1559 1560 1562 1563 1564 1564 1565 1566 1566 1567 1567 1568 1568 1567 1567 1567 1567 1566 1566 1566
1528 1530 1531 1532 1534 1535 1537 1538 1539 1541 1542 1543 1544 1545 1546 1547 1548 1549 1550 1551 1552 1554 1555 1556 1558 1559 1560 1562 1563 1563 1564 1565 1565 1566 1566 1566 1566 1566 1566 1565 1565 1565 1564
1527 1528 1529 1530 1531 1533 1534 1536 1537 1538 1539 1540 1541 1542 1543 1545 1546 1547 1548 1549 1550 1551 1553 1554 1555 1557 1558 1560 1561 1562 1563 1563 1564 1564 1565 1565 1565 1565 1565 1564 1563 1563 1562
1526 1526 1527 1528 1529 1531 1532 1533 1534 1535 1537 1538 1539 1541 1542 1543 1544 1545 1546 1547 1549 1550 1551 1552 1554 1555 1557 1558 1560 1561 1562 1562 1563 1564 1564 1564 1564 1564 1564 1563 1562 1562 1561
1525 1526 1526 1527 1528 1529 1530 1532 1533 1534 1535 1536 1538 1539 1540 1541 1543 1544 1545 1546 1547 1549 1551 1552 1553 1555 1556 1557 1558 1559 1560 1561 1562 1563 1564 1563 1564 1563 1563 1563 1562 1561 1560
1525 1526 1526 1527 1528 1529 1530 1531 1532 1532 1533 1534 1536 1538 1539 1541 1542 1543 1544 1545 1546 1548 1550 1551 1553 1554 1556 1557 1558 1559 1560 1561 1561 1562 1563 1563 1563 1563 1563 1562 1561 1560 1559
1525 1526 1526 1527 1528 1529 1530 1531 1531 1531 1532 1533 1535 1537 1538 1540 1541 1543 1544 1545 1546 1548 1550 1552 1553 1554 1556 1557 1558 1559 1560 1561 1561 1562 1562 1562 1562 1562 1562 1561 1560 1559 1557
1524 1525 1526 1527 1528 1529 1530 1530 1531 1531 1531 1532 1534 1536 1538 1539 1541 1543 1544 1545 1547 1549 1551 1552 1553 1555 1556 1557 1559 1560 1560 1561 1561 1562 1562 1562 1562 1561 1561 1560 1559 1557 1556